Temperature
15 15 15 15 14 14 14 14 14 14 14 14 14 14 14 14 14 14 14 14 14 14 14 14 14 14 14 14 14 14 14 14 15 15 14 14 15 15 15 15 15 15 15
15 15 15 14 14 14 14 14 14 14 14 14 14 14 14 14 14 14 14 14 14 14 14 14 14 14 14 14 14 14 14 14 14 14 14 14 14 14 14 15 15 14 15
15 15 14 14 14 14 14 13 13 14 14 14 14 14 14 14 14 14 13 13 13 13 13 13 14 14 14 14 14 14 14 14 14 14 14 14 14 14 14 14 14 14 14
14 14 14 14 14 14 13 13 13 13 13 13 13 13 13 13 13 13 13 13 13 13 13 13 13 13 13 13 13 13 13 13 13 14 14 14 14 14 14 14 14 14 14
14 14 14 14 13 13 13 13 13 13 13 13 13 13 13 13 13 13 13 13 13 13 13 13 13 13 13 13 13 13 13 13 13 13 13 13 13 13 13 13 13 13 13
13 13 14 13 13 13 13 13 13 13 13 13 13 13 13 13 13 13 13 13 13 13 13 12 12 13 13 13 13 13 12 13 13 13 13 13 13 13 13 13 13 13 13
13 13 13 13 13 13 13 13 12 12 12 12 12 12 12 12 12 12 12 12 12 12 12 12 12 12 12 12 12 12 12 12 12 12 13 13 13 13 13 13 13 13 13
13 13 13 13 13 13 12 12 12 12 12 12 12 12 12 12 12 12 12 12 12 12 12 12 12 12 12 12 12 12 12 12 12 12 12 12 12 12 12 12 12 12 12
12 12 12 12 12 12 12 12 12 12 12 12 12 12 12 12 11 11 11 11 11 11 11 11 11 11 11 11 11 11 11 11 11 11 11 11 11 12 12 12 12 12 12
12 12 12 12 12 12 12 12 11 11 11 11 11 11 11 11 11 11 11 11 11 11 11 11 11 11 11 11 11 11 11 11 11 11 11 11 11 11 11 11 12 12 12
11 11 11 11 11 11 11 11 11 11 11 11 11 11 11 11 11 11 11 11 11 11 11 11 10 10 10 10 10 10 10 11 11 11 11 11 11 11 11 11 11 11 11
11 11 11 11 11 11 11 11 11 11 11 10 11 11 11 10 10 10 10 10 10 10 10 10 10 10 10 10 10 10 10 10 10 10 10 10 10 10 11 11 11 11 11
11 11 11 11 11 11 11 11 10 10 10 10 10 10 10 10 10 10 10 10 10 10 10 10 10 10 9 9 9 9 9 9 9 9 9 10 10 10 10 10 10 10 10
10 10 11 11 10 10 10 10 10 10 10 10 10 10 10 10 10 9 9 9 9 9 9 9 9 9 9 9 9 9 9 9 9 9 9 9 9 9 9 9 10 10 10
10 10 10 10 10 10 10 10 10 10 10 9 9 9 9 9 9 9 9 9 9 9 9 9 9 9 9 8 8 8 8 8 8 8 8 8 8 8 8 9 9 9 9
10 10 10 10 10 10 10 10 9 9 9 9 9 9 9 9 9 9 9 9 9 8 8 8 8 8 8 8 8 8 8 8 8 8 8 8 8 8 8 8 8 8 9
9 9 10 9 9 9 9 9 9 9 9 9 9 8 8 8 8 8 8 8 8 8 8 8 8 8 8 8 7 7 7 7 7 7 7 7 7 8 8 7 8 8 8
9 9 9 9 9 9 9 9 9 8 8 8 8 8 8 8 8 8 8 8 8 7 7 7 7 7 7 7 7 7 7 7 7 7 7 7 7 7 7 7 7 7 7
8 8 9 9 9 8 8 8 8 8 8 8 8 8 8 7 7 7 7 7 7 7 7 7 7 7 6 6 6 6 6 6 6 6 6 6 6 7 7 7 7 7 7
8 8 8 8 8 8 8 8 8 7 7 7 7 7 7 7 7 7 7 7 7 7 6 6 6 6 6 6 6 5 5 5 5 6 6 6 6 6 6 6 6 6 6
7 7 8 8 7 7 7 7 7 7 7 7 7 7 7 7 7 7 6 6 6 6 6 6 5 6 5 5 5 5 4 4 5 5 5 5 5 5 5 6 6 6 6
7 7 7 7 7 6 7 7 7 6 6 6 6 6 6 6 6 6 6 6 6 6 5 5 5 5 5 5 5 4 3 3 4 4 4 4 4 5 5 5 5 5 5
6 6 6 6 6 6 6 6 6 6 6 6 6 6 6 6 6 6 6 6 5 5 5 5 5 5 5 4 4 4 4 3 3 3 3 4 4 4 4 4 4 5 5
5 5 5 5 5 6 5 5 5 5 5 5 5 6 5 5 5 5 5 5 5 5 5 5 5 4 4 4 4 4 4 4 3 2 2 3 3 3 4 4 4 4 4
4 5 5 5 5 5 5 5 5 5 5 5 5 5 5 5 5 5 5 5 5 4 5 4 4 4 4 4 4 4 3 3 3 3 2 2 3 3 3 3 3 4 4
4 4 4 4 4 4 4 4 4 4 4 4 4 4 5 4 4 4 4 4 4 4 4 4 4 4 3 3 3 3 3 3 3 3 3 2 2 2 2 3 3 3 3
Wind_Speed
8 11 13 12 13 13 13 13 14 14 13 14 14 14 14 14 14 15 15 15 16 16 16 17 17 18 19 19 19 19 20 19 20 20 20 19 19 19 19 19 18 18 20
11 14 14 13 14 14 14 14 14 14 14 14 14 14 14 14 14 14 15 15 15 16 16 17 17 18 18 18 18 18 18 18 18 18 19 19 19 19 20 19 18 17 19
13 15 14 14 14 14 14 15 15 14 14 14 14 14 14 14 14 14 15 15 15 16 16 17 17 17 17 17 17 17 16 16 17 17 16 16 17 19 19 19 19 19 19
13 15 14 15 15 15 14 15 14 14 14 14 13 13 14 14 14 14 14 14 15 15 16 16 17 17 17 16 16 15 15 15 16 16 15 15 15 17 18 19 19 19 19
12 15 15 16 15 15 15 15 14 14 14 13 13 13 13 14 14 14 14 15 15 15 16 16 16 16 16 16 15 15 15 16 17 17 16 16 16 18 19 19 18 18 18
12 15 16 16 16 15 15 15 14 14 13 13 13 13 13 13 14 14 15 15 15 15 16 16 16 16 16 15 15 15 15 16 16 16 16 16 15 17 17 18 18 17 18
11 14 16 16 15 15 15 15 14 13 13 13 13 13 13 13 14 14 15 15 15 15 15 16 16 16 15 15 15 16 16 17 16 15 15 15 16 17 17 17 17 17 17
10 12 15 16 15 15 15 14 14 13 13 12 12 12 13 13 14 14 14 15 15 15 15 15 15 15 15 15 15 16 17 16 15 14 14 15 16 16 16 16 16 16 16
10 11 12 13 13 14 14 14 13 13 13 12 12 12 13 13 13 13 14 14 15 15 15 15 15 15 15 15 15 16 17 17 15 13 13 14 15 15 15 15 15 15 15
8 9 9 11 12 11 12 13 13 13 13 13 13 13 13 13 13 13 13 14 15 15 14 14 14 15 15 15 15 16 16 16 15 14 13 13 14 14 14 14 15 15 14
7 7 8 9 10 11 11 12 13 13 13 12 12 13 12 11 11 11 13 14 14 14 13 13 14 14 14 14 15 15 15 14 15 14 13 13 13 13 13 14 14 14 14
8 7 7 8 8 9 10 10 11 10 11 10 10 11 11 10 10 12 14 14 13 13 12 12 12 11 11 11 12 13 13 14 14 13 12 14 13 13 13 14 14 14 14
8 7 7 7 8 8 7 8 7 8 9 9 10 10 10 10 10 11 10 10 11 11 9 9 9 9 10 10 11 12 13 13 12 12 13 13 13 13 13 13 14 14 14
8 7 6 7 7 7 7 7 7 6 6 7 8 9 9 7 7 7 7 8 8 8 7 7 8 10 11 12 12 12 12 12 12 13 14 14 13 13 13 13 13 13 13
7 7 6 6 6 6 6 6 6 6 7 7 7 8 9 7 5 6 6 7 7 7 6 7 8 9 9 10 11 11 11 12 12 13 13 15 13 13 13 13 12 12 13
7 7 6 6 6 6 5 5 5 6 7 7 7 8 9 8 7 6 6 6 6 7 7 7 8 8 8 9 9 11 11 11 12 11 12 13 15 14 13 12 12 11 11
6 7 6 6 7 6 6 6 6 7 8 7 6 8 9 8 8 7 6 5 6 7 8 9 9 9 7 7 7 9 10 10 10 10 11 11 12 13 14 13 12 11 11
6 6 7 6 6 6 5 5 5 6 7 6 7 8 8 9 8 7 5 5 7 8 7 6 5 5 5 5 4 5 7 8 9 10 10 10 10 10 12 13 12 11 11
6 6 6 6 6 5 5 5 5 6 6 6 7 7 8 8 9 8 6 6 8 7 5 5 4 4 5 5 5 4 5 5 6 8 8 9 10 10 10 10 11 11 11
6 6 6 6 6 5 5 4 4 4 4 5 5 6 8 7 8 8 7 7 7 5 4 4 5 5 4 5 5 5 3 4 5 5 6 8 9 9 9 8 9 9 9
5 6 6 7 6 5 5 5 5 5 4 4 4 6 7 7 7 7 6 6 5 5 5 5 5 6 4 4 4 3 3 3 3 3 5 5 6 7 8 8 8 8 7
5 5 6 6 6 6 5 4 4 4 4 4 4 6 8 8 7 7 7 6 5 5 6 6 6 4 3 2 2 2 1 1 2 2 2 3 4 5 6 6 7 7 7
4 4 4 5 6 5 5 4 4 3 3 3 4 4 6 7 7 7 7 6 6 5 6 6 6 5 4 2 1 2 2 2 0 1 1 1 2 2 3 4 5 5 5
4 4 4 5 5 5 5 6 7 6 5 5 5 5 6 7 7 8 7 7 6 5 6 6 5 4 5 4 1 0 1 2 2 1 1 1 1 1 1 2 3 4 4
3 4 4 4 5 5 5 5 6 6 4 4 5 6 5 5 7 8 8 7 6 6 6 6 5 5 4 4 3 1 1 1 1 2 2 1 1 1 0 1 2 3 2
1 3 4 4 4 5 5 5 5 6 6 6 6 6 5 4 5 6 7 6 6 5 6 6 5 6 4 4 3 3 3 2 2 2 2 2 2 2 1 1 2 3 2
Wind_Direction
124 129 136 130 126 122 119 113 108 102 98 94 90 87 84 82 82 81 79 77 75 73 71 70 70 69 69 68 68 67 68 68 68 67 65 65 69 71 72 70 70 71 71
128 132 136 130 128 123 118 113 107 103 99 95 92 89 87 85 85 83 81 79 77 75 73 72 72 71 71 69 67 67 67 67 67 67 64 64 67 69 70 70 72 73 72
127 131 134 130 127 121 118 114 108 105 102 98 94 90 88 86 86 84 82 81 78 77 75 74 73 72 72 70 68 67 65 65 65 64 64 66 68 69 72 74 74 75 73
128 131 134 131 128 124 119 115 111 107 103 98 95 92 89 88 87 86 84 83 80 78 77 75 74 72 71 69 67 64 61 59 60 61 63 64 66 70 71 73 74 75 74
126 129 133 132 130 126 121 118 114 110 106 101 96 94 90 88 87 85 84 83 81 80 78 77 75 73 71 68 64 61 57 57 58 61 62 63 64 68 69 71 73 74 73
128 129 134 134 131 128 124 121 117 113 109 105 101 98 95 91 88 86 85 84 83 81 80 78 75 72 71 66 60 56 55 56 63 63 61 62 64 67 68 69 71 73 74
128 129 136 136 133 131 127 123 120 115 111 106 103 101 99 95 92 88 87 88 86 84 81 78 75 73 70 64 58 54 56 61 64 63 63 64 65 67 67 68 71 72 74
124 127 133 136 134 132 130 126 122 118 113 109 106 103 100 98 95 92 91 91 88 85 83 80 77 75 70 64 58 54 56 61 65 65 64 66 67 68 66 66 67 71 73
117 122 128 133 132 131 130 127 124 121 118 114 110 105 101 99 98 95 93 92 89 88 85 81 77 75 70 64 58 55 57 58 59 62 67 66 68 68 67 66 67 69 72
116 120 126 129 130 129 130 130 125 123 119 116 112 108 103 102 100 98 96 94 91 90 87 82 79 75 69 63 59 57 57 57 59 60 65 67 67 67 68 68 68 68 69
128 127 127 125 126 128 129 130 126 124 121 117 115 113 108 102 99 100 100 97 93 91 88 86 82 77 69 62 57 55 58 59 58 58 61 67 67 68 69 69 68 68 67
149 144 138 135 133 132 133 128 128 128 125 120 118 115 107 104 101 100 100 99 96 94 91 88 82 75 70 61 55 56 60 59 61 58 58 64 66 69 71 70 69 68 68
148 142 144 144 139 135 129 130 125 126 126 124 124 120 115 107 101 100 99 97 97 95 90 87 79 73 69 62 61 61 60 59 61 60 55 62 65 68 70 70 70 67 66
151 149 147 144 141 135 132 133 131 126 121 121 132 129 117 105 101 102 100 103 100 95 91 83 77 73 69 64 65 66 63 63 63 62 55 59 64 67 68 71 72 70 67
153 152 154 150 147 143 138 138 132 128 129 126 134 128 122 113 108 104 100 100 98 100 93 83 80 75 70 66 66 67 67 66 66 65 57 54 58 63 67 69 71 70 68
160 158 156 153 148 144 146 143 136 127 125 124 123 128 127 125 118 112 105 100 97 100 97 91 86 81 75 72 66 64 65 66 67 68 63 55 54 57 60 63 66 69 69
165 159 161 160 149 148 149 145 135 135 132 128 126 128 128 127 122 114 111 107 106 108 103 96 89 85 81 76 68 62 62 64 64 63 62 60 57 55 57 58 60 63 65
166 162 166 163 155 151 146 140 136 136 133 129 133 132 130 133 129 119 116 115 118 115 108 106 102 98 91 85 75 66 62 60 61 63 61 60 61 59 56 54 54 58 60
169 165 164 160 160 158 144 138 132 132 130 132 134 133 135 138 137 127 123 121 122 117 114 119 111 111 106 95 86 70 60 58 58 64 63 61 62 62 60 53 50 54 56
167 166 164 161 159 152 143 130 131 135 132 130 134 139 142 141 140 133 130 130 124 121 122 122 120 110 111 110 93 72 54 57 60 60 64 65 62 62 61 58 53 51 51
163 169 169 166 165 161 161 157 158 165 161 154 142 144 146 144 140 137 136 136 132 137 141 135 128 121 117 115 94 72 37 40 60 55 58 66 66 67 64 59 59 54 49
175 178 174 171 170 175 176 170 161 160 162 156 148 145 150 149 144 142 143 146 142 142 143 142 138 135 147 148 127 121 113 24 21 35 61 76 74 73 69 62 63 60 57
174 181 185 182 178 178 171 156 141 135 136 153 165 164 158 156 154 154 154 152 151 155 161 159 160 154 164 192 167 141 150 183 338 358 39 53 65 75 73 72 70 66 59
188 185 187 185 180 177 171 170 169 178 178 183 175 165 163 164 162 162 162 160 160 162 167 172 171 165 161 172 198 57 146 145 148 159 324 354 40 40 80 86 81 74 60
188 184 186 182 183 178 178 177 180 185 178 155 150 158 166 167 167 166 165 163 166 168 169 172 173 173 174 174 176 169 127 117 126 161 225 265 314 301 91 113 113 104 84
175 178 177 182 185 181 180 185 187 184 172 164 166 169 170 170 166 168 170 170 172 173 175 175 177 176 179 177 177 172 168 174 188 174 199 232 256 271 271 180 152 149 144
Height
1510 1511 1514 1516 1518 1519 1521 1523 1524 1526 1527 1528 1529 1530 1531 1532 1533 1533 1534 1535 1536 1536 1537 1537 1538 1538 1539 1539 1540 1540 1541 1542 1542 1543 1543 1544 1545 1545 1545 1546 1546 1547 1547
1508 1511 1514 1516 1518 1520 1521 1523 1525 1526 1528 1529 1530 1531 1532 1533 1534 1535 1535 1536 1537 1538 1538 1539 1540 1540 1541 1541 1542 1543 1543 1544 1544 1545 1545 1546 1547 1547 1548 1548 1548 1549 1550
1508 1511 1513 1516 1518 1520 1522 1524 1525 1527 1528 1530 1531 1532 1533 1534 1535 1536 1537 1537 1538 1539 1540 1540 1541 1542 1542 1543 1544 1545 1545 1546 1547 1547 1548 1548 1549 1549 1550 1550 1551 1551 1552
1508 1511 1513 1516 1518 1520 1522 1524 1526 1527 1529 1530 1532 1533 1534 1535 1536 1537 1537 1538 1539 1540 1540 1541 1542 1543 1544 1544 1545 1546 1547 1548 1548 1549 1549 1550 1551 1551 1552 1552 1553 1553 1554
1509 1511 1513 1516 1518 1520 1522 1524 1526 1528 1529 1531 1532 1534 1535 1536 1536 1537 1538 1539 1540 1541 1541 1542 1543 1544 1545 1546 1547 1548 1549 1549 1550 1551 1551 1552 1552 1553 1553 1554 1554 1555 1555
1509 1511 1513 1516 1518 1520 1523 1525 1527 1528 1530 1531 1533 1534 1535 1536 1537 1538 1539 1539 1540 1541 1542 1543 1544 1545 1546 1547 1548 1549 1550 1551 1551 1552 1552 1553 1554 1555 1555 1555 1556 1556 1557
1508 1510 1513 1515 1518 1520 1523 1525 1527 1529 1530 1532 1533 1534 1535 1536 1537 1538 1539 1540 1541 1542 1543 1544 1545 1546 1547 1548 1549 1550 1551 1552 1552 1553 1554 1554 1555 1556 1556 1557 1557 1557 1558
1508 1510 1513 1515 1518 1520 1522 1525 1527 1528 1530 1532 1533 1534 1535 1536 1537 1538 1539 1540 1541 1542 1543 1544 1545 1547 1548 1549 1550 1551 1552 1552 1553 1554 1555 1555 1556 1557 1557 1558 1558 1558 1559
1508 1510 1512 1515 1517 1520 1522 1524 1527 1528 1530 1531 1533 1534 1535 1536 1538 1539 1540 1541 1542 1543 1544 1545 1546 1547 1548 1549 1550 1551 1552 1553 1554 1554 1555 1556 1557 1557 1558 1558 1559 1559 1560
1507 1509 1511 1514 1516 1519 1522 1524 1526 1528 1530 1531 1533 1534 1535 1536 1538 1539 1540 1541 1542 1543 1544 1545 1546 1548 1549 1550 1551 1552 1553 1553 1554 1555 1555 1556 1557 1558 1558 1559 1559 1559 1560
1506 1509 1511 1513 1516 1518 1521 1523 1525 1527 1529 1531 1532 1533 1535 1536 1537 1539 1540 1541 1542 1543 1544 1545 1547 1548 1549 1550 1551 1552 1553 1553 1554 1555 1556 1557 1558 1558 1558 1559 1559 1559 1560
1504 1507 1509 1512 1514 1517 1519 1521 1524 1526 1528 1529 1531 1532 1534 1535 1537 1538 1539 1541 1542 1543 1544 1546 1547 1548 1549 1550 1551 1552 1552 1553 1554 1555 1556 1557 1557 1558 1558 1559 1559 1559 1560
1503 1505 1508 1510 1513 1515 1517 1520 1522 1524 1526 1528 1530 1532 1533 1535 1536 1537 1539 1541 1542 1543 1544 1545 1547 1548 1549 1550 1551 1551 1552 1553 1554 1555 1556 1557 1557 1558 1558 1559 1559 1559 1560
1501 1503 1506 1508 1511 1513 1516 1518 1520 1522 1524 1526 1528 1530 1532 1533 1535 1537 1538 1540 1541 1543 1544 1545 1546 1547 1548 1549 1550 1551 1552 1553 1553 1554 1555 1556 1557 1558 1558 1558 1559 1560 1560
1499 1501 1504 1506 1509 1512 1514 1516 1518 1520 1522 1524 1527 1529 1530 1532 1534 1535 1537 1539 1540 1542 1543 1545 1546 1547 1548 1549 1550 1551 1551 1552 1553 1554 1555 1556 1557 1558 1558 1558 1559 1559 1560
1496 1499 1502 1505 1507 1509 1511 1514 1516 1518 1520 1523 1525 1527 1529 1531 1532 1534 1536 1538 1539 1541 1542 1544 1545 1546 1547 1548 1549 1550 1551 1551 1552 1553 1554 1555 1556 1557 1558 1558 1559 1559 1560
1494 1496 1499 1502 1504 1506 1509 1511 1513 1516 1518 1520 1523 1525 1527 1529 1531 1532 1534 1536 1538 1539 1541 1542 1544 1545 1546 1547 1548 1549 1550 1551 1552 1552 1553 1554 1555 1556 1557 1558 1558 1559 1559
1491 1494 1497 1499 1501 1504 1506 1508 1510 1513 1516 1518 1520 1522 1524 1527 1529 1530 1532 1534 1536 1538 1539 1541 1542 1543 1545 1546 1547 1548 1549 1550 1551 1551 1552 1553 1554 1555 1555 1556 1557 1558 1558
1488 1490 1493 1496 1498 1500 1503 1505 1508 1510 1513 1515 1518 1520 1522 1524 1526 1528 1530 1532 1534 1535 1537 1539 1541 1542 1543 1545 1546 1547 1548 1549 1549 1550 1551 1552 1553 1553 1554 1555 1556 1556 1556
1485 1487 1490 1492 1494 1497 1500 1502 1504 1507 1510 1512 1515 1517 1519 1521 1523 1525 1527 1529 1531 1533 1535 1537 1539 1540 1542 1543 1544 1546 1547 1547 1548 1549 1549 1550 1551 1552 1552 1553 1554 1554 1555
1481 1483 1486 1488 1490 1493 1495 1497 1500 1502 1506 1509 1511 1514 1516 1518 1520 1522 1524 1526 1528 1530 1532 1534 1536 1538 1539 1541 1542 1544 1545 1546 1547 1547 1548 1549 1549 1550 1550 1551 1552 1553 1553
1477 1480 1482 1484 1487 1489 1492 1494 1496 1499 1502 1505 1508 1510 1513 1515 1517 1519 1521 1523 1525 1527 1529 1531 1533 1535 1537 1539 1540 1541 1543 1545 1545 1546 1546 1547 1548 1548 1549 1549 1550 1551 1551
1474 1475 1478 1480 1483 1485 1488 1491 1493 1496 1498 1501 1504 1506 1509 1511 1513 1516 1518 1520 1522 1524 1526 1527 1530 1532 1533 1536 1538 1540 1541 1541 1542 1543 1544 1545 1546 1546 1547 1547 1548 1549 1549
1471 1473 1475 1477 1479 1482 1484 1486 1488 1491 1493 1496 1499 1502 1505 1507 1510 1512 1514 1516 1518 1521 1523 1524 1527 1529 1531 1533 1535 1537 1539 1539 1540 1540 1542 1542 1543 1544 1544 1545 1545 1546 1547
1468 1470 1471 1473 1476 1478 1480 1483 1485 1487 1490 1493 1496 1498 1501 1503 1506 1508 1510 1512 1514 1517 1519 1521 1523 1526 1528 1530 1531 1533 1535 1536 1537 1538 1538 1539 1540 1541 1542 1542 1543 1543 1544
1465 1466 1468 1470 1472 1474 1477 1479 1481 1483 1485 1488 1490 1493 1496 1499 1502 1504 1506 1508 1511 1513 1515 1517 1520 1522 1524 1526 1528 1529 1531 1532 1533 1534 1535 1535 1536 1538 1538 1539 1540 1540 1541